Location: Berry Creek
(51.8849°N, 111.7341°W)
Time: 21:29:45
(UTC-07:00)

Daily predictions for brighter satellites

Satellite Brightness Start Highest point End
(mag) Time Altitude Azimuth Time Altitude Azimuth Time Altitude Azimuth
Cosmos 2237 Rocket 3.8 17:24:28 10° W 17:29:18 28° NW 17:34:10 10° NNE
AQUARIUS 4.2 17:26:17 10° SSE 17:30:44 65° ENE 17:35:13 10° N
Cosmos 2366 rocket 4.4 17:28:19 10° N 17:34:12 40° ENE 17:39:58 10° SE
Cosmos 1400 Rocket 3.7 17:32:48 10° SSE 17:36:27 32° E 17:40:08 10° NNE
SL-16 R/B 4.5 17:33:03 10° N 17:37:45 24° NW 17:42:28 10° WSW
SeaSat 1 3.2 17:33:02 10° SSE 17:37:54 59° WSW 17:42:49 10° NW
NOSS 3-4 (A) 3.8 17:31:10 10° NW 17:38:01 72° NE 17:45:24 10° SE
NOSS 3-4 (C) 3.8 17:31:17 10° NW 17:38:08 71° NE 17:45:31 10° SE
IRS-1A Rocket 4.4 17:32:59 10° SE 17:38:24 54° ENE 17:43:55 10° N
Nadezhda 1 Rocket 4.2 17:33:16 10° S 17:39:33 86° W 17:45:59 10° N
Cosmos 1626 4.0 17:38:01 10° ESE 17:39:35 12° E 17:41:10 10° ENE
GEOS 3 Rocket 4.3 17:37:31 10° E 17:42:24 37° NNE 17:47:21 10° NW
CZ-2C R/B 4.1 17:38:04 10° SSW 17:42:25 37° W 17:46:43 10° NNW
ALOS 2.9 17:38:24 10° SE 17:42:35 34° ENE 17:46:48 10° N
Lacrosse 4 Rocket 3.1 17:39:22 10° W 17:42:49 25° NW 17:46:16 10° NNE
NOSS 7 (E) 4.4 17:39:50 10° SW 17:43:11 83° NW 17:46:33 10° NE
Cosmos 2322 Rocket 4.3 17:47:21 10° NNW 17:48:48 11° N 17:50:15 10° NNE
Okean 3 Rocket 4.1 17:45:09 10° SSE 17:49:21 39° E 17:53:33 10° NNE
NOSS 3-3 (A) 4.2 17:43:39 10° SSW 17:49:45 65° SE 17:56:31 10° NE
NOSS 3-3 (C) 4.2 17:43:46 10° SSW 17:49:51 65° SE 17:56:36 10° NE
Cosmos 1656 Rocket 3.6 17:45:41 10° NNW 17:51:08 65° NE 17:56:37 10° SE
Cosmos 1300 2.7 17:48:38 10° N 17:52:26 57° ENE 17:56:13 10° SSE
Cosmos 2369 Rocket 3.6 17:47:54 10° NW 17:53:16 45° WSW 17:58:37 10° S
CORIOLIS 4.2 17:48:24 10° SSE 17:53:45 90° WSW 17:59:09 10° NNW
Cosmos 1151 Rocket 4.4 17:51:46 10° NNE 17:54:56 19° ENE 17:58:06 10° ESE
MOS 1 4.5 17:49:56 10° SE 17:55:20 50° ENE 18:00:48 10° N
NOAA 12 4.4 17:51:18 10° SE 17:56:13 43° ENE 18:01:10 10° N
Cosmos 2341 Rocket 4.2 17:53:22 10° NNW 17:59:38 80° W 18:05:56 10° S
CZ-4 R/B 4.4 17:55:35 10° SSE 17:59:39 62° ENE 18:03:45 10° N
Meteor 2-16 Rocket 4.4 17:53:43 10° N 17:59:52 83° E 18:06:00 10° SSE
ERS-2 3.1 17:57:10 10° ESE 18:00:16 26° ENE 18:03:22 10° N
YAOGAN 1 2.5 17:56:08 10° SSE 18:00:25 67° ENE 18:04:45 10° N
Cosmos 1943 Rocket 3.0 17:54:58 10° NW 18:00:28 56° WSW 18:05:53 10° S
Cosmos 2219 Rocket 4.3 17:58:46 10° WNW 18:02:05 16° NNW 18:05:25 10° NNE
Cosmos 1867 4.3 17:58:19 10° WSW 18:03:36 49° NW 18:08:56 10° NE
CSL-04 Rocket 4.3 17:58:30 10° S 18:04:00 63° WSW 18:09:29 10° NNW
SL-24 R/B - RUBIN 2 3.8 17:59:55 10° NW 18:04:37 77° SW 18:08:58 10° SE
Cosmos 2221 3.0 18:02:21 10° NNW 18:06:43 68° W 18:11:03 10° S
CZ-2C R/B 4.0 18:04:48 10° NNE 18:09:27 51° E 18:13:59 10° S
SJ-6B 4.4 18:10:14 16° NE 18:10:14 16° NE 18:12:19 10° NNE
SL-16 R/B 4.2 18:09:14 10° N 18:11:01 11° N 18:12:49 10° NNE
Cosmos 2058 4.4 18:09:45 10° SE 18:12:29 17° E 18:12:51 17° ENE
SL-14 R/B 3.3 18:09:11 10° S 18:13:03 56° E 18:16:56 10° NNE
Ariane Rocket 3.9 18:13:47 10° S 18:18:44 54° WSW 18:23:45 10° NNW
Cosmos 2360 Rocket 4.4 18:18:10 10° NNW 18:19:35 11° N 18:20:58 10° NNE
Meteor 1-28 Rocket 3.4 18:17:39 10° N 18:21:29 73° WNW 18:25:16 10° SSW
Cosmos 1726 3.7 18:18:58 10° NNW 18:22:23 37° W 18:25:47 10° SSW
Cosmos 1980 Rocket 3.8 18:20:40 10° NNW 18:24:14 17° NNE 18:25:52 15° NE
Cosmos 44 3.9 18:20:46 10° S 18:24:34 30° ESE 18:26:30 22° ENE
Cosmos 1515 Rocket 4.0 18:22:43 10° N 18:26:46 36° ENE 18:30:48 10° SE
FENGYUN 3A 3.6 18:22:20 10° SSE 18:27:41 78° ENE 18:33:05 10° NNW
Cosmos 2181 Rocket 4.1 18:21:45 10° S 18:28:13 85° WNW 18:34:40 10° N
USA 215 3.5 18:23:15 17° ENE 18:28:25 62° N 18:34:50 10° W
ERBS 2.3 18:25:09 10° WNW 18:28:31 60° NNE 18:30:08 27° E
CZ-4 R/B 2.6 18:25:24 10° S 18:29:30 48° W 18:33:38 10° NNW
Cosmos 909 Rocket 4.1 18:23:37 10° NW 18:30:58 72° NE 18:37:17 10° SE
Cosmos 2151 4.0 18:28:20 10° SE 18:31:47 24° E 18:32:06 24° E
Cosmos 1408 Rocket 3.7 18:27:55 10° SSE 18:32:03 48° E 18:36:13 10° NNE
Cosmos 2333 Rocket 4.4 18:30:41 10° NW 18:33:39 14° NNW 18:36:37 10° NNE
Resurs 01 Rocket 3.5 18:37:44 14° NNE 18:37:44 14° NNE 18:38:57 10° NNE
COSMO-SKYMED 1 2.5 18:31:48 10° NNE 18:36:08 64° ESE 18:40:26 10° S
Cosmos 1346 Rocket 2.6 18:33:03 10° N 18:37:00 72° ENE 18:40:52 10° SSE
SL-8 Rocket 4.4 18:30:59 10° NNW 18:37:07 66° W 18:43:15 10° S
Cosmos 1777 Rocket 4.2 18:31:57 10° NNW 18:37:13 78° WSW 18:42:28 10° SSE
RESURS DK-1 3.5 18:33:52 10° NNW 18:37:18 24° NE 18:37:34 24° NE
ATLAS 5 CENTAUR R/B 3.5 18:33:41 10° NW 18:37:58 25° N 18:40:47 17° NE
Meteor 1-27 4.2 18:35:01 10° N 18:40:44 72° ENE 18:46:30 10° SSE
SPOT 3 Rocket 3.5 18:36:23 10° SSE 18:41:32 85° ENE 18:46:45 10° NNW
Cosmos 2278 4.5 18:36:55 10° NNW 18:42:01 32° NE 18:43:59 26° ENE
Cosmos 1076 Rocket 3.8 18:38:32 10° SSW 18:42:54 71° WNW 18:47:17 10° N
MTI 3.7 18:41:27 26° NNE 18:43:06 62° ESE 18:46:16 10° S
Cosmos 2218 Rocket 4.3 18:38:15 10° NNW 18:44:23 69° W 18:50:28 10° S
USA 116 4.3 18:40:25 10° N 18:44:32 71° WNW 18:49:13 10° SSW
Cosmos 1315 Rocket 2.6 18:41:00 10° S 18:44:56 82° E 18:48:44 11° NNE
Cosmos 1500 Rocket 4.4 18:41:26 10° SSE 18:45:03 29° E 18:45:03 29° E
TSX-5 3.6 18:42:49 10° SSW 18:46:01 51° ESE 18:46:57 39° ENE
NOSS 2-1 (C) 4.1 18:42:49 10° WSW 18:46:33 49° NW 18:49:19 21° NNE
H-2A R/B 2.7 18:42:56 10° SSE 18:46:42 57° ENE 18:50:32 10° N
NOSS 2-1 (D) 4.2 18:43:30 10° WSW 18:47:14 48° NW 18:49:59 21° NNE
Meteor 1-11 4.2 18:43:18 10° S 18:48:46 57° E 18:54:20 10° NNE
Cosmos 1455 2.1 18:46:25 10° N 18:50:15 59° ENE 18:54:03 10° SSE
Cosmos 2228 Rocket 3.1 18:45:58 10° N 18:50:33 65° ENE 18:55:07 10° SSE
Geosat 4.2 18:49:01 13° NNE 18:53:31 72° NW 18:58:31 10° SW
USA 81 4.3 18:48:37 10° SSE 18:53:33 42° E 18:58:30 10° NNE
SL-16 R/B 4.2 18:49:43 10° WNW 18:53:50 20° NNW 18:57:59 10° NNE
COSMOS 2406 3.8 18:48:53 10° S 18:54:02 36° ESE 18:55:34 31° ENE
Cosmos 2369 4.2 18:51:13 10° NNW 18:56:37 40° NE 18:58:21 32° E
Cosmos 1328 Rocket 3.5 18:53:56 10° NNW 18:58:22 85° W 19:02:42 10° S
TELKOM 3 4.2 18:56:45 10° W 18:58:20 37° SW 18:58:20 37° SW
Cosmos 44 Rocket 3.4 18:54:34 10° SSW 18:59:06 49° ESE 19:00:20 39° E
Cosmos 1743 Rocket 3.7 18:55:40 10° SSE 18:59:51 47° E 19:00:54 39° NE
BREEZE-M DEB (TANK) 3.0 18:59:26 10° SW 19:02:38 29° SSE 19:02:38 29° SSE
Cosmos 1943 4.1 18:58:36 10° WSW 19:03:59 45° NW 19:09:00 12° NNE
FengYun 1-2 T 4.1 18:59:21 10° SSE 19:05:00 81° ENE 19:10:37 10° NNW
Cosmos 1898 Rocket 3.7 19:01:43 10° NNW 19:06:56 50° ENE 19:08:33 37° ESE
EO 1 Del DPAF 3.1 19:07:02 31° NNE 19:08:47 85° ESE 19:12:37 10° SSW
Cosmos 1328 4.4 19:05:56 10° SSW 19:09:53 57° WNW 19:13:54 10° N
Cosmos 1697 Rocket 3.4 19:06:00 10° NNW 19:11:05 33° NE 19:11:16 33° NE
Cosmos 2098 Rocket 3.9 19:08:01 10° NNW 19:13:00 73° W 19:19:15 10° S
Landsat 4 4.0 19:11:07 20° N 19:13:37 64° WNW 19:17:18 10° SSW
Cosmos 1656 3.9 19:08:47 10° NNW 19:14:00 43° NE 19:14:35 42° ENE
Cosmos 1626 2.4 19:10:42 10° SSW 19:14:23 66° WNW 19:16:33 23° N
Cosmos 1766 Rocket 4.3 19:14:42 10° SSW 19:18:56 53° WNW 19:23:12 10° N
ALOS 3.8 19:15:41 10° SSW 19:20:00 37° W 19:24:21 10° NNW
GEOS 3 Rocket 3.7 19:16:31 21° SE 19:20:09 79° SW 19:25:36 10° NW
Cosmos 332 Rocket 4.0 19:15:38 10° S 19:20:07 50° ESE 19:20:07 50° ESE
Cosmos 990 Rocket 4.2 19:19:45 10° NNW 19:24:43 49° NE 19:24:43 49° NE
Cosmos 1821 Rocket 3.8 19:19:36 10° N 19:25:48 83° E 19:32:01 10° S
Cosmos 1535 Rocket 4.3 19:20:42 10° N 19:26:54 75° ENE 19:33:01 10° SSE
Meteor 2-15 Rocket 4.4 19:21:49 10° SSE 19:27:45 55° E 19:33:41 10° NNE
Envisat 2.9 19:31:32 62° ESE 19:31:59 65° ENE 19:37:03 10° N
Cosmos 1703 3.5 19:28:04 10° SSW 19:32:02 67° WNW 19:32:58 48° NNW
Cosmos 1151 Rocket 3.5 19:28:35 10° NNW 19:32:55 60° W 19:37:14 10° S
ERS-2 3.9 19:30:28 10° SSW 19:33:49 33° W 19:37:13 10° NNW
Cosmos 2322 Rocket 4.0 19:31:29 10° NNW 19:34:27 18° NNE 19:34:27 18° NNE
Cosmos 1340 4.2 19:35:08 10° NNW 19:37:02 28° NNW 19:37:02 28° NNW
Meteor 2-10 Rocket 3.8 19:34:35 10° N 19:38:30 48° NNE 19:38:30 48° NNE
Nadezhda 3 Rocket 4.1 19:37:55 10° SSW 19:44:16 80° WNW 19:50:42 10° N
SJ-6B 4.1 19:45:52 32° NNW 19:45:52 32° NNW 19:48:03 10° NNW
Cosmos 2219 Rocket 4.5 19:47:14 10° NNW 19:48:43 11° N 19:49:24 11° N
Cosmos 2058 3.4 19:44:50 10° SSW 19:48:58 58° WNW 19:49:10 57° WNW
Cosmos 2298 Rocket 4.2 19:48:45 10° NNW 19:53:15 61° N 19:53:15 61° N
Thor Agena Rocket 4.0 19:56:38 49° S 19:56:38 49° S 20:00:25 10° SSW
SL-16 R/B 3.9 19:53:02 10° NNW 19:55:38 19° N 19:55:38 19° N
Cosmos 1937 Rocket 3.6 19:55:16 10° NNW 19:59:49 68° NNW 19:59:49 68° NNW
Cosmos 1934 Rocket 4.1 19:57:09 10° NNW 20:03:30 74° W 20:09:51 10° S
Cosmos 44 4.0 20:01:20 10° WSW 20:04:58 46° WNW 20:04:58 46° WNW
Cosmos 371 Rocket 4.1 20:00:50 10° SSW 20:04:06 43° SW 20:04:06 43° SW
Cosmos 2360 Rocket 4.3 20:02:45 10° NNW 20:04:38 15° N 20:04:38 15° N
Cosmos 1605 Rocket 3.8 20:02:09 10° N 20:08:18 88° ENE 20:08:18 88° ENE
Cosmos 2151 4.2 20:04:51 10° SW 20:08:47 41° WNW 20:08:47 41° WNW
Cosmos 1980 Rocket 3.3 20:04:12 10° NNW 20:07:39 33° N 20:07:39 33° N
USA 215 3.3 20:10:36 60° NNE 20:11:04 61° N 20:17:29 10° WNW
Resurs 01 Rocket 3.8 20:15:18 18° NNW 20:15:18 18° NNW 20:16:28 10° NNW
RESURS DK-1 4.3 20:11:35 10° NW 20:13:30 26° NW 20:13:30 26° NW
ATLAS 5 CENTAUR R/B 3.5 20:18:58 10° NW 20:22:21 30° N 20:22:21 30° N
Cosmos 2278 4.1 20:20:56 10° NW 20:25:57 60° WNW 20:25:57 60° WNW
Cosmos 2344 4.4 20:22:38 10° NW 20:31:51 61° NNE 20:33:27 57° ENE
COSMOS 2406 4.0 20:32:39 10° SW 20:37:43 49° WNW 20:37:43 49° WNW
Cosmos 1697 Rocket 4.1 20:49:52 10° NW 20:53:01 33° NW 20:53:01 33° NW
